Location: Red Deer
(52.2681°N, 113.8112°W)
Time: 02:55:40
(UTC-07:00)

BlueWalker 3 - Pass Details

Date: 05 December 2022
Orbit: 499 x 517 km, 53.2° (Epoch: 29 January)

Event Time Altitude Azimuth Distance (km) Brightness Sun altitude
Rises 17:31:44 0° 275° (W) 2,633 6.8 -9.8°
Reaches altitude 10° 17:33:57 10° 277° (W) 1,742 5.7 -10.1°
Maximum altitude 17:37:54 77° 3° (N) 530 1.9 -10.6°
Enters shadow 17:41:11 14° 90° (E) 1,478 3.7 -11.1°
